Location: South Cushing
(43.9686°N, 69.2945°W)
Time: 18:35:17
(UTC-04:00)

Tiangong 2 - Pass Details

Date: 19 July 2018
Orbit: 384 x 393 km, 42.8° (Epoch: 17 October)

Event Time Altitude Azimuth Distance (km) Brightness Sun altitude
Rises 22:27:59 0° 276° (W) 2,259 5.5 -18.3°
Reaches altitude 10° 22:30:12 10° 265° (W) 1,403 4.2 -18.5°
Enters shadow 22:32:11 26° 233° (SW) 805 2.6 -18.7°
